This is the latest recevied weather packets stored in our database for station/object I1SXT-13. If no packets are shown the sender has not sent any weather packets the latest 1 day(s).
| Time | Temp. | Humidity | Pressure | Rain* | Wind** | Luminosity | Snow |
|---|---|---|---|---|---|---|---|
| 1778058268 | 17.22° C | 93% | 1009.9 hPa | 28.45 mm | - | - | - |
| 1778057970 | 17.22° C | 93% | 1009.3 hPa | 26.16 mm | - | - | - |
| 1778057069 | 17.22° C | 94% | 1009.9 hPa | 18.54 mm | - | - | - |
| 1778056764 | 16.67° C | 94% | 1009.3 hPa | 15.75 mm | - | - | - |
| 1778056466 | 16.11° C | 93% | 1009.2 hPa | 12.95 mm | - | - | - |
| 1778055564 | 17.22° C | 92% | 1009 hPa | 2.03 mm | - | - | - |
| 1778055267 | 17.22° C | 93% | 1009.4 hPa | 2.03 mm | - | - | - |
| 1778054969 | 16.67° C | 92% | 1008.1 hPa | 0 mm | - | - | - |
| 1778054665 | 17.22° C | 92% | 1008.1 hPa | 0 mm | - | - | - |
| 1778054367 | 17.22° C | 92% | 1007.4 hPa | 1.02 mm | - | - | - |
| 1778054070 | 17.22° C | 93% | 1008.3 hPa | 1.02 mm | - | - | - |
| 1778053766 | 17.22° C | 92% | 1008.7 hPa | 1.02 mm | - | - | - |
| 1778053469 | 16.67° C | 91% | 1008.7 hPa | 1.02 mm | - | - | - |
| 1778053165 | 16.67° C | 92% | 1008.4 hPa | 1.02 mm | - | - | - |
| 1778051665 | 16.67° C | 95% | 1008.5 hPa | 1.02 mm | - | - | - |
| 1778051368 | 16.67° C | 94% | 1007.8 hPa | 1.02 mm | - | - | - |
| 1778051064 | 16.67° C | 94% | 1008.1 hPa | 1.02 mm | - | - | - |
| 1778049267 | 16.67° C | 95% | 1007.6 hPa | 1.02 mm | - | - | - |
| 1778048970 | 16.11° C | 95% | 1008.3 hPa | 1.02 mm | - | - | - |
| 1778048666 | 16.11° C | 95% | 1007.9 hPa | 1.02 mm | - | - | - |
| 1778046869 | 15° C | 95% | 1008.2 hPa | 1.02 mm | - | - | - |
| 1778045065 | 14.44° C | 96% | 1008.1 hPa | 1.02 mm | - | - | - |
| 1778044768 | 13.89° C | 96% | 1008.2 hPa | 1.02 mm | - | - | - |
| 1778044167 | 13.89° C | 96% | 1008.1 hPa | 1.02 mm | - | - | - |
| 1778043870 | 14.44° C | 97% | 1007.6 hPa | 1.02 mm | - | - | - |
* Rain since midnight (hover to see other rain measurements)
** Current wind speed in m/s (hover to see current wind gust speed)